| time (UTC) | temp F | wind direction | speed MPH | gust MPH | rain 1hr in | rain 24hr in | rain mn in | humidity % | barometer mb |
| 20260506073059 | 45 | 334 | 0.0 | 3.0 | 0.00 | 0.11 | 0.00 | 61 | 1011.7 |
| 20260506071555 | 46 | 334 | 0.0 | 1.0 | 0.00 | 0.11 | 0.00 | 61 | 1011.5 |
| 20260506061549 | 47 | 335 | 1.0 | 5.0 | 0.00 | 0.11 | 0.00 | 62 | 1011.5 |
| 20260506044539 | 50 | 333 | 0.0 | 3.0 | 0.00 | 0.11 | 0.11 | 57 | 1010.9 |
| 20260506043036 | 50 | 291 | 0.0 | 4.0 | 0.00 | 0.11 | 0.11 | 57 | 1010.8 |
| 20260506041535 | 50 | 291 | 0.0 | 2.0 | 0.00 | 0.11 | 0.11 | 58 | 1010.9 |
| 20260506040034 | 50 | 291 | 0.0 | 2.0 | 0.00 | 0.11 | 0.11 | 61 | 1011.2 |
| 20260506034534 | 49 | 291 | 0.0 | 2.0 | 0.00 | 0.11 | 0.11 | 67 | 1010.9 |
| 20260506033032 | 49 | 291 | 0.0 | 0.0 | 0.00 | 0.11 | 0.11 | 68 | 1010.8 |
| 20260506031530 | 49 | 291 | 0.0 | 0.0 | 0.00 | 0.11 | 0.11 | 63 | 1010.8 |
| 20260506030035 | 50 | 291 | 0.0 | 0.0 | 0.00 | 0.11 | 0.11 | 62 | 1010.4 |
| 20260506024541 | 50 | 291 | 0.0 | 0.0 | 0.00 | 0.11 | 0.11 | 62 | 1010.4 |
| 20260506023031 | 51 | 291 | 0.0 | 0.0 | 0.00 | 0.11 | 0.11 | 61 | 1010.4 |
| 20260506021529 | 51 | 291 | 0.0 | 0.0 | 0.00 | 0.11 | 0.11 | 57 | 1010.5 |
| 20260506020026 | 51 | 291 | 0.0 | 0.0 | 0.00 | 0.11 | 0.11 | 56 | 1010.2 |
| 20260506014532 | 52 | 291 | 0.0 | 0.0 | 0.00 | 0.11 | 0.11 | 54 | 1009.8 |
| 20260506013024 | 52 | 291 | 0.0 | 0.0 | 0.00 | 0.11 | 0.11 | 53 | 1009.6 |
| 20260506011524 | 53 | 291 | 0.0 | 1.0 | 0.00 | 0.11 | 0.11 | 51 | 1009.2 |
| 20260506010027 | 53 | 291 | 0.0 | 0.0 | 0.00 | 0.11 | 0.11 | 50 | 1009.4 |
| 20260506004522 | 53 | 291 | 0.0 | 3.0 | 0.00 | 0.11 | 0.11 | 48 | 1009.1 |
| 20260506003022 | 54 | 291 | 0.0 | 7.0 | 0.00 | 0.11 | 0.11 | 47 | 1009.0 |
| 20260506001525 | 54 | 327 | 0.0 | 6.0 | 0.00 | 0.11 | 0.11 | 46 | 1009.0 |
| 20260506000021 | 54 | 329 | 1.0 | 4.0 | 0.00 | 0.12 | 0.11 | 45 | 1009.1 |
| 20260505234528 | 54 | 331 | 0.0 | 3.0 | 0.00 | 0.12 | 0.11 | 46 | 1008.8 |
| 20260505233021 | 54 | 332 | 3.0 | 8.0 | 0.00 | 0.12 | 0.11 | 44 | 1008.9 |
| 20260505231520 | 54 | 306 | 2.0 | 8.0 | 0.00 | 0.12 | 0.11 | 46 | 1009.0 |
| 20260505230042 | 55 | 324 | 3.0 | 5.0 | 0.00 | 0.13 | 0.11 | 43 | 1009.0 |
| 20260505224519 | 55 | 286 | 3.0 | 9.0 | 0.00 | 0.13 | 0.11 | 41 | 1009.2 |
| 20260505223018 | 55 | 322 | 2.0 | 8.0 | 0.00 | 0.13 | 0.11 | 43 | 1009.3 |
| 20260505221517 | 55 | 316 | 2.0 | 6.0 | 0.00 | 0.13 | 0.11 | 44 | 1009.3 |
| 20260505220021 | 55 | 325 | 1.0 | 5.0 | 0.00 | 0.16 | 0.11 | 44 | 1009.2 |
| 20260505214516 | 55 | 306 | 2.0 | 7.0 | 0.00 | 0.16 | 0.11 | 42 | 1009.4 |
| 20260505213016 | 55 | 309 | 2.0 | 8.0 | 0.00 | 0.16 | 0.11 | 43 | 1009.4 |
| 20260505211516 | 55 | 326 | 3.0 | 6.0 | 0.00 | 0.16 | 0.11 | 41 | 1009.5 |
| 20260505210015 | 55 | 316 | 2.0 | 10.0 | 0.00 | 0.16 | 0.11 | 41 | 1009.4 |
| 20260505204514 | 55 | 311 | 2.0 | 6.0 | 0.00 | 0.16 | 0.11 | 40 | 1009.6 |
| 20260505203018 | 55 | 301 | 4.0 | 8.0 | 0.00 | 0.16 | 0.11 | 39 | 1009.6 |
| 20260505201514 | 55 | 309 | 2.0 | 10.0 | 0.00 | 0.16 | 0.11 | 41 | 1009.7 |
| 20260505200012 | 55 | 311 | 2.0 | 5.0 | 0.00 | 0.16 | 0.11 | 42 | 1009.7 |
| 20260505194511 | 55 | 328 | 2.0 | 5.0 | 0.00 | 0.16 | 0.11 | 40 | 1009.7 |
| 20260505193011 | 55 | 313 | 2.0 | 7.0 | 0.00 | 0.16 | 0.11 | 43 | 1009.5 |
| 20260505191509 | 56 | 242 | 1.0 | 8.0 | 0.00 | 0.16 | 0.11 | 43 | 1009.8 |
| 20260505190010 | 55 | 305 | 2.0 | 6.0 | 0.00 | 0.16 | 0.11 | 42 | 1010.0 |
| 20260505184508 | 55 | 306 | 3.0 | 8.0 | 0.00 | 0.16 | 0.11 | 43 | 1009.8 |
| 20260505183007 | 55 | 263 | 1.0 | 6.0 | 0.00 | 0.16 | 0.11 | 48 | 1009.8 |
| 20260505181507 | 55 | 303 | 2.0 | 8.0 | 0.00 | 0.16 | 0.11 | 47 | 1009.8 |
| 20260505180010 | 55 | 320 | 4.0 | 8.0 | 0.00 | 0.16 | 0.11 | 43 | 1009.7 |
| 20260505174505 | 55 | 306 | 2.0 | 7.0 | 0.00 | 0.16 | 0.11 | 46 | 1009.7 |
| 20260505173005 | 55 | 345 | 4.0 | 8.0 | 0.00 | 0.16 | 0.11 | 42 | 1009.6 |
| 20260505171504 | 55 | 339 | 4.0 | 10.0 | 0.00 | 0.16 | 0.11 | 44 | 1009.3 |
| 20260505170003 | 55 | 281 | 3.0 | 6.0 | 0.00 | 0.16 | 0.11 | 45 | 1009.2 |
| 20260505164504 | 55 | 289 | 5.0 | 10.0 | 0.00 | 0.16 | 0.11 | 42 | 1009.0 |
| 20260505163002 | 55 | 316 | 2.0 | 6.0 | 0.00 | 0.16 | 0.11 | 48 | 1009.0 |
| 20260505161600 | 54 | 334 | 3.0 | 10.0 | 0.00 | 0.16 | 0.11 | 48 | 1009.6 |
| 20260505153056 | 52 | 288 | 3.0 | 8.0 | 0.00 | 0.16 | 0.11 | 61 | 1009.2 |
| 20260505151554 | 51 | 339 | 0.0 | 5.0 | 0.00 | 0.16 | 0.11 | 70 | 1008.9 |
| 20260505124533 | 44 | 342 | 0.0 | 4.0 | 0.08 | 0.13 | 0.08 | 88 | 1008.7 |
| 20260505123034 | 44 | 342 | 1.0 | 4.0 | 0.07 | 0.12 | 0.07 | 86 | 1009.6 |
| 20260505121527 | 45 | 342 | 1.0 | 3.0 | 0.05 | 0.10 | 0.05 | 80 | 1009.0 |
| 20260505120025 | 46 | 342 | 3.0 | 9.0 | 0.02 | 0.07 | 0.02 | 75 | 1009.3 |
| 20260505114519 | 47 | 283 | 1.0 | 5.0 | 0.00 | 0.05 | 0.00 | 69 | 1009.2 |
| 20260505113017 | 49 | 348 | 3.0 | 5.0 | 0.00 | 0.05 | 0.00 | 61 | 1008.2 |
| 20260505111518 | 50 | 339 | 3.0 | 11.0 | 0.00 | 0.05 | 0.00 | 58 | 1008.2 |
| 20260505101507 | 52 | 295 | 2.0 | 5.0 | 0.00 | 0.05 | 0.00 | 58 | 1007.3 |
| 20260505100107 | 52 | 331 | 2.0 | 6.0 | 0.00 | 0.05 | 0.00 | 60 | 1006.4 |
| 20260505100007 | 52 | 327 | 2.0 | 6.0 | 0.00 | 0.05 | 0.00 | 60 | 1006.3 |
| 20260505094559 | 52 | 340 | 2.0 | 8.0 | 0.00 | 0.05 | 0.00 | 64 | 1006.0 |
| 20260505093102 | 53 | 339 | 2.0 | 5.0 | 0.00 | 0.05 | 0.00 | 62 | 1006.2 |
| 20260505091554 | 53 | 329 | 2.0 | 6.0 | 0.00 | 0.05 | 0.00 | 61 | 1006.3 |
| 20260505090050 | 53 | 5 | 3.0 | 13.0 | 0.00 | 0.05 | 0.00 | 60 | 1006.0 |
| 20260505084548 | 54 | 337 | 2.0 | 9.0 | 0.00 | 0.05 | 0.00 | 58 | 1005.5 |
| 20260505083044 | 54 | 286 | 2.0 | 7.0 | 0.00 | 0.05 | 0.00 | 59 | 1004.8 |
| 20260505081551 | 54 | 285 | 2.0 | 7.0 | 0.00 | 0.05 | 0.00 | 58 | 1004.3 |
| 20260505080048 | 55 | 300 | 2.0 | 5.0 | 0.00 | 0.05 | 0.00 | 56 | 1003.8 |
| 20260505074536 | 55 | 317 | 2.0 | 5.0 | 0.00 | 0.05 | 0.00 | 56 | 1003.7 |